Location: Usti nad Orlici
(49.9830°N, 16.4000°E)
Time: 04:03:50
(UTC+02:00)

ISS - Pass Details

Date: 30 March 2019
Orbit: 411 x 421 km, 51.6° (Epoch: 14 October)

Event Time Altitude Azimuth Distance (km) Brightness Sun altitude
Rises 20:36:53 0° 285° (WNW) 2,352 1.3 -20.9°
Reaches altitude 10° 20:38:59 10° 286° (WNW) 1,487 0.0 -21.1°
Enters shadow 20:41:50 63° 287° (WNW) 466 -3.4 -21.5°
